STARLINK-11189 [DTC] (60188 NORAD) Tracking and Keplerian Element Data

This shows tracking and keplerian element data for the satellite.

Feedback or suggestion? Click here.




ElementValue
Catalog60188
NameSTARLINK-11189 [DTC]
Epoch Orbit1591
Epoch Day286.41691095
Epoch Year2024
RAAN171.8802
Inclination53.1575
Eccentricity8.97E-05
Argument of Perigee139.5155
Mean Anonmoly220.5929
Mean Motion15.69701883
Decay Rate6.534E-05
L11 60188U 24124F 24286.41691095 .00006534 00000+0 58763-4 0 9993
L22 60188 53.1575 171.8802 0000897 139.5155 220.5929 15.69701883 15914



Live tracking and technical data element details for STARLINK-11189 [DTC] (NORAD 60188). STARLINK-11189 [DTC] can be tracked NOW for your location showing map with azimuth and elevation plus other details from your city location.







IsCatalogInMostPopularTable: catalog: 60188, numindb: 11
Update: records affected: 1



GetName: 60188 STARLINK-11189 [DTC]

Hit Count: updated at: Thu, 23 Jan 2025 13:17:23 GMT